Wetbulb
47.57 48.44 48.60 48.23 49.42 48.93 50.26 50.36 54.00 57.82 57.00 55.84 54.74 54.29 54.03 55.69 56.28 57.76 58.09 60.19 61.98 61.33 63.82 67.34 67.05 65.92 65.55 65.39 64.82 64.22 63.25 62.31 63.64 61.71 61.35 61.86 62.75 62.85 63.50 64.02 64.30 64.38 64.68
46.59 47.37 46.50 45.68 46.08 46.97 47.73 49.21 50.29 57.03 55.94 55.52 54.84 54.11 54.03 54.58 55.40 55.73 56.37 57.77 58.46 60.07 60.69 59.47 60.87 67.28 66.07 65.34 65.27 64.63 63.42 63.52 63.37 60.87 59.15 57.32 60.07 61.80 62.95 63.72 63.25 63.53 64.38
44.52 45.67 46.14 44.22 44.13 44.62 45.22 47.80 47.90 56.08 55.29 54.84 54.17 53.43 52.82 52.80 52.66 53.63 54.13 53.74 57.66 58.34 58.62 57.89 57.68 58.98 65.40 66.24 65.77 65.36 64.14 62.84 63.55 62.70 60.94 56.17 55.97 58.28 61.68 62.33 63.63 63.29 63.77
44.40 44.58 44.00 43.52 43.51 44.09 45.47 46.27 47.11 55.23 55.24 53.95 52.38 51.11 50.03 49.53 51.46 52.69 52.27 52.86 54.26 55.39 55.36 54.68 56.39 57.86 59.23 59.09 64.00 66.87 65.28 64.06 62.98 62.79 62.88 62.71 58.79 56.22 54.37 58.62 59.34 62.00 62.85
42.92 43.11 43.58 44.05 43.48 43.26 43.20 44.02 45.80 54.54 54.26 52.52 51.56 50.46 49.56 49.91 50.36 50.60 50.43 51.11 51.65 52.55 52.11 50.52 52.59 53.89 56.09 57.62 57.33 61.09 66.17 65.18 63.70 63.58 62.47 61.90 61.65 60.68 57.10 54.69 55.43 58.06 59.13
40.94 42.71 43.84 44.83 42.94 43.33 43.69 44.39 46.38 50.56 52.47 52.26 51.44 50.15 49.65 49.35 47.50 47.64 47.19 47.72 48.38 49.87 49.53 49.10 49.92 49.84 50.48 52.50 54.93 57.05 62.10 65.29 64.69 63.89 63.91 62.39 60.68 60.03 59.52 57.17 56.17 56.24 57.11
40.57 40.92 41.67 40.82 42.42 42.45 43.61 47.68 48.37 49.71 50.78 49.81 49.25 49.08 48.78 48.80 46.66 45.14 44.74 44.54 43.89 44.03 44.38 45.47 47.50 46.81 47.41 49.66 51.43 52.66 53.69 54.78 60.94 63.70 63.82 63.73 62.88 62.78 61.78 60.48 58.31 56.67 57.91
40.80 40.37 40.64 41.03 41.84 43.70 45.69 46.48 47.42 47.97 48.02 47.60 47.16 47.21 48.63 46.84 45.25 44.07 43.20 42.75 42.48 43.09 43.45 43.20 45.39 45.16 45.57 44.59 45.62 46.88 48.22 48.94 49.85 48.76 50.06 64.17 63.40 63.20 62.02 61.05 59.38 55.13 57.13
39.33 40.12 40.46 41.57 41.82 43.96 45.81 44.88 43.87 45.94 47.00 46.08 46.11 46.65 45.36 44.06 42.48 41.74 41.45 41.30 40.95 41.82 41.88 41.99 42.01 42.66 42.96 43.15 42.20 41.11 41.35 42.44 43.23 43.00 44.39 46.82 47.76 49.42 50.26 50.17 58.41 58.60 52.46
40.02 40.29 41.11 42.21 42.04 44.33 45.21 43.87 43.06 44.37 45.78 45.07 43.87 43.94 43.03 41.74 40.36 39.59 37.98 37.64 37.81 38.14 38.95 39.11 39.85 40.70 40.68 40.83 40.41 38.99 38.74 37.77 37.65 38.38 38.48 38.49 40.49 41.70 42.09 42.97 43.14 45.76 53.42
39.36 40.35 40.90 41.15 42.07 43.75 43.42 42.96 43.57 43.50 43.84 43.63 42.87 41.67 40.41 39.20 37.76 36.42 35.40 34.30 35.21 35.02 36.18 36.73 36.84 37.72 39.77 39.70 38.25 38.11 37.42 35.67 34.38 34.16 34.32 34.62 34.95 34.51 37.74 38.71 39.87 40.23 46.10
41.35 41.62 41.64 40.76 42.57 43.02 42.88 41.84 41.86 41.97 43.72 42.65 40.91 39.39 37.40 34.84 33.29 33.65 33.24 33.51 32.93 33.92 34.13 35.21 35.47 36.37 36.44 37.48 38.20 35.68 34.67 33.34 31.73 31.14 31.00 30.68 32.96 31.82 32.70 34.08 34.95 37.27 38.97
39.75 40.66 42.63 42.43 42.63 42.49 41.74 40.51 40.36 40.56 40.98 40.04 38.16 36.91 33.74 32.56 32.00 31.77 31.91 32.19 32.13 32.15 32.28 33.14 33.81 34.38 35.55 35.86 35.90 36.60 34.25 32.60 30.58 29.91 29.52 30.24 31.20 30.85 31.68 32.15 32.35 34.30 37.00
40.12 41.37 40.61 42.63 42.28 42.25 40.64 39.59 39.28 40.13 38.87 37.47 35.87 33.59 32.62 32.50 32.21 32.40 31.06 30.63 30.96 30.47 30.77 31.40 31.76 32.42 34.02 34.95 34.83 34.23 33.56 32.51 30.84 30.23 30.13 30.05 30.44 30.55 31.09 31.54 31.36 32.57 33.16
40.33 40.34 40.56 40.47 42.41 40.70 39.26 38.21 38.22 37.73 37.09 35.48 34.31 33.36 32.38 32.77 31.98 31.59 31.40 30.72 29.87 29.77 30.15 29.88 29.81 30.23 31.42 32.60 33.42 32.88 31.24 30.09 29.17 29.31 29.61 30.19 31.55 32.85 32.39 30.03 28.90 29.33 29.15
35.95 37.02 39.32 41.06 40.35 38.39 36.91 35.94 35.42 35.96 36.09 33.67 33.10 32.68 31.95 31.06 30.70 30.96 30.08 29.80 29.97 28.80 27.95 27.82 28.11 28.10 30.07 32.33 33.80 31.61 28.98 28.33 27.55 27.18 28.43 29.44 30.35 29.84 30.95 30.17 29.98 28.74 27.06
33.72 34.70 37.83 39.84 39.30 36.95 35.88 34.59 34.23 34.59 33.47 32.98 32.04 31.55 31.31 30.75 31.19 32.36 30.92 29.13 27.66 27.49 26.17 25.41 26.14 27.19 28.06 30.50 31.03 31.30 29.33 27.85 27.76 27.08 27.12 27.92 29.08 29.03 28.08 28.58 28.50 28.70 29.54
34.60 35.90 37.46 40.67 38.34 36.64 34.91 33.45 33.18 31.84 31.71 31.28 31.05 31.32 31.23 31.00 31.38 31.01 30.42 29.39 28.20 25.62 24.08 23.73 24.14 25.44 27.54 29.23 29.15 29.13 28.04 27.58 27.23 28.10 27.50 27.27 27.71 28.27 27.57 27.22 26.69 26.69 27.22
35.53 35.89 39.75 38.08 36.46 34.74 33.46 31.84 30.54 29.86 29.78 29.57 30.13 30.46 30.46 29.08 28.77 28.16 29.02 28.66 26.76 24.73 23.13 23.29 23.01 22.80 25.33 28.95 28.24 26.79 26.46 25.95 26.17 27.01 28.34 27.92 27.05 29.14 29.33 26.53 25.57 25.15 26.17
35.61 35.64 35.67 35.13 33.44 32.59 31.77 30.12 29.67 29.85 28.90 28.39 27.62 27.91 26.87 25.72 24.70 25.01 26.77 26.29 25.12 23.90 23.29 22.04 22.27 24.58 23.47 28.37 28.36 26.76 25.07 24.37 25.25 26.54 26.47 27.85 26.87 27.89 27.72 25.41 24.42 22.80 23.65
35.31 34.95 34.01 32.59 31.49 31.25 30.30 28.30 28.17 27.45 28.04 26.84 25.56 24.71 24.75 24.00 23.88 23.96 23.59 23.49 23.54 22.46 20.94 20.54 21.34 22.13 24.14 25.04 28.04 27.72 25.12 24.25 24.19 24.31 23.45 25.02 26.67 26.47 26.68 26.02 24.03 23.12 23.77
33.23 33.38 31.69 30.43 30.55 30.54 30.06 28.40 27.34 28.04 26.47 25.40 24.02 22.89 22.74 23.33 22.97 21.31 21.20 21.28 20.81 20.63 20.10 19.80 20.09 21.55 22.77 25.55 26.46 27.03 26.18 25.14 22.58 21.93 22.49 23.06 24.94 24.46 24.61 23.76 24.25 23.85 22.48
30.11 30.49 28.62 27.88 28.23 28.36 27.28 25.59 25.45 25.78 24.40 23.39 21.34 22.54 23.93 23.19 22.52 20.60 19.95 19.51 19.95 20.01 19.73 19.92 19.57 20.32 22.10 22.28 25.06 25.55 25.57 24.23 21.31 22.00 22.36 22.59 22.47 22.22 21.31 22.34 22.34 20.78 19.38
30.11 29.66 28.40 27.19 27.59 29.46 28.59 25.60 23.60 22.42 20.08 18.98 21.01 24.25 23.80 22.49 21.73 21.84 21.64 20.16 19.50 19.46 20.47 19.98 19.18 19.71 20.84 21.79 22.43 22.68 22.27 22.39 20.46 18.91 18.01 16.92 19.53 16.76 16.58 17.68 18.85 19.16 18.20
28.82 28.11 26.57 25.96 24.83 24.40 23.14 24.63 24.19 24.89 24.64 24.61 24.92 24.39 24.30 23.27 22.10 22.36 21.84 20.38 21.30 21.74 20.40 20.61 19.89 18.77 18.56 21.41 23.19 22.62 21.27 20.62 18.81 14.75 14.06 13.51 13.52 13.51 14.60 15.22 16.01 16.60 16.68
26.30 25.41 24.59 22.46 21.09 21.05 21.05 22.85 25.40 25.22 23.90 23.34 22.77 22.43 22.25 22.22 22.61 22.56 21.30 24.28 22.65 22.98 23.09 23.28 21.29 19.71 23.12 23.89 23.40 22.43 21.68 21.39 18.73 13.74 11.90 11.10 11.97 12.10 12.69 12.83 13.24 13.96 13.97
MSLP
1015.92 1015.62 1015.25 1014.96 1014.69 1014.28 1013.80 1013.66 1013.40 1013.63 1013.44 1012.90 1012.57 1012.22 1011.95 1011.17 1010.55 1010.69 1010.94 1010.37 1009.46 1008.62 1007.78 1006.87 1005.72 1005.37 1005.10 1004.99 1005.23 1005.44 1005.76 1005.76 1005.43 1006.31 1005.85 1005.60 1005.68 1005.68 1005.64 1005.76 1005.69 1005.70 1005.89
1016.25 1015.86 1015.79 1015.64 1015.43 1015.09 1014.72 1014.29 1014.01 1013.99 1014.03 1013.83 1013.52 1013.23 1012.80 1012.00 1011.32 1010.55 1010.17 1009.83 1009.45 1008.88 1008.20 1007.84 1006.61 1004.87 1004.26 1004.24 1004.05 1004.16 1004.26 1004.31 1004.55 1005.08 1005.71 1005.29 1004.98 1004.85 1004.53 1004.54 1004.61 1004.68 1005.03
1016.96 1016.95 1016.63 1016.37 1016.04 1015.59 1015.02 1014.50 1014.40 1014.63 1014.78 1014.45 1013.87 1013.26 1012.64 1012.20 1011.53 1010.62 1009.88 1009.75 1009.21 1008.77 1008.25 1007.40 1006.58 1005.81 1004.63 1003.20 1003.11 1003.28 1003.16 1003.21 1003.43 1003.97 1004.22 1004.45 1003.62 1003.44 1003.28 1003.49 1003.85 1004.03 1004.37
1017.35 1017.11 1016.76 1016.16 1016.01 1015.88 1015.52 1015.40 1015.41 1015.36 1015.07 1014.70 1014.40 1014.12 1013.51 1012.84 1012.42 1011.69 1011.02 1010.08 1009.90 1009.31 1008.67 1008.06 1006.98 1005.97 1005.01 1004.28 1003.39 1002.42 1002.49 1002.75 1002.51 1002.82 1002.94 1002.55 1002.96 1003.26 1003.40 1003.33 1003.49 1003.70 1003.82
1018.12 1017.77 1017.40 1017.19 1016.74 1016.79 1016.67 1016.35 1016.13 1015.87 1015.64 1015.22 1014.91 1014.53 1013.99 1013.42 1012.76 1012.22 1011.47 1010.84 1010.31 1010.11 1009.60 1008.69 1007.58 1006.61 1005.69 1004.66 1003.60 1002.76 1001.18 1002.06 1002.01 1001.64 1001.69 1002.15 1002.23 1002.61 1002.74 1003.18 1003.57 1004.01 1004.25
1018.00 1017.80 1017.56 1017.22 1017.68 1017.51 1017.32 1017.13 1016.92 1016.58 1016.14 1015.89 1015.29 1014.90 1014.41 1013.92 1013.29 1012.67 1012.10 1011.57 1011.02 1010.44 1010.17 1009.25 1008.17 1007.32 1006.34 1005.12 1003.97 1002.68 1001.51 1000.73 1000.05 1000.25 1001.11 1000.80 1001.03 1000.88 1001.85 1002.55 1003.03 1003.63 1004.53
1018.08 1017.87 1017.73 1017.90 1018.07 1017.98 1017.87 1017.65 1017.46 1017.05 1016.73 1016.33 1015.82 1015.40 1014.81 1014.62 1014.27 1013.82 1013.03 1012.34 1011.95 1011.10 1010.80 1009.95 1008.68 1007.82 1007.06 1005.78 1004.65 1003.19 1002.15 1001.07 1000.15 998.66 999.33 999.49 999.24 999.47 999.87 1000.75 1001.91 1002.62 1004.19
1018.92 1018.59 1018.19 1017.99 1017.86 1017.91 1018.12 1018.01 1017.67 1017.45 1017.18 1016.85 1016.49 1016.06 1015.72 1015.47 1015.05 1014.64 1013.82 1013.37 1013.11 1012.30 1011.50 1010.56 1009.38 1008.56 1007.66 1006.71 1005.90 1004.80 1003.58 1001.92 1001.34 1000.73 1000.61 998.10 998.04 998.59 998.82 999.42 1000.54 1001.82 1002.86
1019.17 1018.77 1018.35 1017.93 1018.14 1018.30 1018.32 1018.25 1018.00 1017.87 1017.53 1017.39 1017.14 1016.65 1016.56 1016.44 1015.81 1015.36 1014.60 1014.35 1013.73 1013.33 1012.28 1011.54 1010.48 1009.36 1008.08 1007.58 1007.06 1006.24 1005.38 1004.35 1003.05 1001.81 1001.57 999.91 1001.58 999.13 999.99 999.67 999.33 999.84 1000.98
1019.28 1018.80 1018.71 1018.64 1018.67 1018.62 1018.72 1018.81 1018.67 1018.48 1018.27 1017.81 1017.70 1017.63 1017.38 1017.08 1016.49 1015.98 1015.55 1015.51 1014.62 1014.41 1013.29 1012.35 1011.15 1010.23 1009.32 1008.64 1008.19 1007.47 1007.50 1006.03 1005.67 1004.64 1003.65 1003.49 1003.11 1003.54 1000.96 1002.11 1001.69 1001.20 999.04
1019.61 1019.87 1019.76 1019.69 1019.56 1019.75 1019.62 1019.44 1019.04 1018.85 1018.42 1018.39 1018.47 1018.58 1018.24 1017.63 1017.41 1017.08 1016.90 1016.68 1015.80 1015.48 1014.04 1013.56 1012.21 1011.30 1010.43 1009.93 1008.90 1008.60 1008.71 1007.48 1006.67 1005.31 1006.10 1005.27 1006.38 1005.12 1003.78 1003.54 1003.28 1002.53 1000.00
1021.87 1021.23 1020.66 1020.35 1020.45 1020.64 1020.40 1020.21 1019.80 1019.50 1019.22 1019.28 1019.34 1019.53 1019.42 1018.86 1018.37 1018.31 1017.62 1017.56 1016.87 1016.56 1015.18 1014.52 1013.20 1012.51 1011.86 1011.05 1010.48 1010.38 1010.15 1009.71 1008.30 1008.22 1008.65 1008.54 1007.93 1006.88 1006.19 1005.14 1004.71 1005.16 1004.28
1022.22 1021.62 1021.03 1020.66 1020.64 1020.84 1021.18 1020.74 1020.64 1020.14 1020.34 1020.25 1020.22 1020.37 1020.33 1019.97 1019.49 1019.05 1018.48 1018.66 1018.16 1017.20 1016.76 1015.10 1014.42 1013.86 1013.11 1012.42 1012.21 1011.92 1011.52 1011.34 1011.12 1010.90 1010.22 1010.49 1009.73 1009.13 1008.33 1007.89 1007.19 1006.38 1007.98
1022.18 1021.99 1021.75 1021.38 1021.33 1021.31 1022.43 1021.63 1021.47 1021.28 1021.27 1021.20 1021.17 1021.19 1021.11 1020.97 1020.54 1019.79 1019.54 1019.41 1019.13 1018.48 1017.69 1016.96 1016.38 1015.31 1014.60 1013.95 1013.69 1013.25 1012.89 1012.75 1012.45 1012.08 1011.83 1011.27 1010.45 1009.96 1009.71 1009.63 1009.51 1009.41 1009.09
1022.57 1022.46 1022.25 1022.13 1021.84 1022.02 1022.63 1022.58 1022.46 1022.40 1022.13 1021.99 1022.09 1021.96 1021.90 1021.82 1021.21 1020.53 1020.46 1020.68 1020.21 1019.69 1019.22 1018.33 1017.68 1016.65 1015.78 1015.15 1014.79 1014.38 1014.17 1013.78 1013.76 1014.02 1013.58 1012.92 1012.26 1011.73 1011.62 1011.46 1011.54 1011.44 1011.48
1023.60 1023.04 1022.82 1022.30 1022.06 1022.36 1022.46 1023.29 1023.45 1023.08 1022.95 1022.75 1022.90 1022.78 1022.53 1022.39 1021.86 1021.42 1021.28 1021.29 1021.09 1020.79 1020.28 1019.60 1019.09 1018.06 1017.15 1016.37 1015.79 1015.61 1015.65 1015.35 1015.07 1014.91 1014.66 1014.44 1013.81 1013.78 1013.80 1013.29 1013.10 1012.91 1012.87
1024.24 1023.47 1022.73 1022.63 1022.97 1022.94 1023.44 1023.64 1024.01 1023.88 1023.76 1023.44 1023.69 1023.59 1023.25 1022.87 1022.46 1022.05 1021.99 1022.00 1022.01 1021.79 1021.44 1021.01 1020.38 1019.12 1018.54 1017.82 1017.31 1016.90 1016.74 1016.24 1016.01 1015.87 1015.69 1015.39 1015.07 1015.26 1015.23 1014.73 1014.24 1013.98 1013.99
1024.45 1023.64 1023.00 1022.88 1023.30 1023.99 1024.11 1024.58 1024.58 1024.69 1024.51 1024.22 1024.61 1024.39 1023.91 1023.47 1023.16 1022.68 1022.47 1022.61 1022.70 1022.72 1022.49 1022.06 1021.59 1020.66 1019.89 1019.13 1018.40 1017.85 1017.57 1017.22 1016.98 1016.80 1016.53 1016.20 1015.76 1015.73 1015.61 1014.91 1014.26 1014.10 1014.25
1024.65 1024.14 1023.14 1023.77 1024.57 1025.03 1025.24 1025.53 1025.46 1025.50 1025.28 1025.45 1025.57 1025.24 1024.72 1024.28 1023.97 1023.69 1023.45 1023.46 1023.51 1023.49 1023.45 1023.18 1022.59 1021.84 1021.16 1020.35 1019.48 1018.89 1018.51 1018.21 1017.89 1017.62 1017.51 1017.08 1016.54 1016.43 1015.84 1015.10 1014.63 1014.77 1014.74
1025.48 1025.40 1025.56 1025.81 1026.03 1026.36 1026.52 1026.46 1026.60 1026.21 1026.24 1026.67 1026.65 1026.28 1025.87 1025.56 1025.28 1025.02 1024.66 1024.68 1024.58 1024.52 1024.34 1024.07 1023.59 1022.96 1022.24 1021.45 1020.56 1020.08 1019.67 1018.86 1018.64 1018.40 1018.14 1017.69 1017.19 1016.90 1016.39 1015.98 1015.76 1015.44 1015.62
1026.96 1026.88 1026.72 1027.09 1027.49 1027.70 1027.65 1027.66 1027.67 1027.39 1027.74 1027.68 1027.52 1027.18 1026.88 1026.61 1026.34 1026.13 1025.96 1025.83 1025.62 1025.39 1025.15 1024.76 1024.34 1023.70 1023.03 1022.55 1021.59 1021.23 1020.70 1020.26 1019.97 1019.47 1019.33 1019.08 1018.28 1017.82 1017.29 1017.11 1016.96 1016.66 1016.36
1028.42 1028.34 1028.05 1028.37 1028.69 1028.75 1028.57 1028.53 1028.43 1028.73 1028.70 1028.56 1028.35 1028.13 1027.91 1027.50 1027.28 1027.06 1026.97 1026.74 1026.51 1026.12 1025.75 1025.40 1024.95 1024.31 1023.91 1023.32 1022.47 1022.01 1021.60 1021.24 1020.84 1020.47 1020.31 1020.18 1019.55 1019.27 1018.75 1018.29 1017.88 1017.47 1017.11
1029.97 1029.97 1029.63 1029.70 1029.74 1029.69 1029.65 1029.58 1029.62 1029.60 1029.47 1029.38 1029.25 1029.04 1028.68 1028.36 1028.22 1027.93 1027.74 1027.45 1027.20 1026.80 1026.48 1026.01 1025.63 1025.16 1024.65 1024.03 1023.28 1022.64 1022.05 1021.81 1021.68 1021.52 1021.35 1020.92 1020.20 1019.74 1019.25 1018.61 1018.32 1017.95 1017.49
1030.82 1031.13 1030.87 1030.66 1030.67 1030.62 1030.45 1030.42 1030.26 1030.17 1030.10 1030.11 1029.87 1029.64 1029.29 1029.20 1029.03 1028.78 1028.56 1028.33 1028.05 1027.75 1027.32 1026.88 1026.59 1026.20 1025.38 1024.49 1023.87 1023.26 1022.75 1022.40 1022.17 1022.09 1021.85 1021.50 1021.16 1020.77 1020.23 1019.75 1019.23 1018.85 1018.56
1031.83 1032.12 1032.09 1031.86 1031.88 1031.72 1031.43 1031.06 1030.82 1030.59 1030.54 1030.44 1030.26 1030.03 1029.89 1029.77 1029.70 1029.47 1029.31 1029.22 1029.11 1028.69 1028.24 1027.95 1027.71 1026.94 1026.18 1025.71 1025.18 1024.51 1023.98 1023.59 1023.48 1023.04 1022.57 1022.10 1021.57 1021.14 1020.76 1020.25 1019.79 1019.33 1018.95
1032.87 1033.06 1033.25 1032.97 1032.80 1032.52 1032.22 1031.83 1031.53 1031.23 1031.06 1031.04 1030.93 1030.73 1030.53 1030.38 1030.19 1030.04 1030.02 1029.78 1029.95 1029.60 1029.27 1028.81 1028.30 1028.10 1027.28 1026.53 1025.90 1025.38 1024.89 1024.30 1024.13 1023.54 1023.15 1022.87 1022.53 1022.03 1021.51 1020.99 1020.49 1020.09 1019.64
Wind_Speed
7 9 10 9 10 10 14 14 12 9 9 8 10 11 12 11 11 9 10 11 14 14 14 12 16 13 14 15 15 13 13 11 11 7 10 10 11 14 13 11 12 13 13
9 8 8 9 9 8 8 10 8 8 7 7 7 4 7 6 8 11 13 13 13 15 13 12 15 14 11 16 16 15 14 14 11 11 5 8 10 10 13 12 11 13 8
8 9 9 7 5 7 7 9 8 7 8 10 8 8 5 6 8 12 12 16 15 14 13 15 11 11 13 12 16 15 18 15 12 13 10 4 10 4 8 13 11 10 7
8 6 6 8 8 8 9 9 8 7 9 8 9 10 8 11 10 10 11 12 16 16 15 16 16 13 6 10 12 14 13 14 16 6 12 16 3 5 3 2 3 3 5
8 10 9 8 6 8 7 7 8 6 6 6 6 7 14 11 11 10 15 14 12 13 15 17 15 14 10 9 8 14 14 12 15 15 9 15 14 8 3 4 1 2 2
8 8 7 7 7 8 9 9 8 8 9 9 12 12 14 12 14 12 11 10 10 11 13 16 13 14 13 11 10 8 13 16 14 11 15 13 14 15 13 4 3 4 2
9 10 10 8 6 7 7 8 11 12 12 12 14 14 12 12 12 11 9 12 11 10 13 15 13 12 14 14 12 9 9 10 12 25 17 16 16 12 15 14 9 5 3
7 8 6 5 4 6 8 9 9 10 11 12 12 11 11 7 8 9 8 8 9 10 13 13 12 14 14 14 14 11 10 9 10 17 24 15 15 15 11 12 12 4 4
7 5 1 4 5 7 6 6 7 7 9 11 10 11 10 11 9 11 11 9 11 12 12 12 12 13 15 15 14 12 15 14 14 12 12 16 12 11 9 10 7 15 8
13 5 4 3 5 5 5 6 7 8 6 12 11 9 9 10 11 11 14 13 13 14 14 13 13 14 14 15 13 13 14 16 14 13 18 16 13 13 12 11 10 10 2
14 9 8 7 5 6 6 7 8 10 9 11 11 10 10 12 12 13 13 12 13 14 15 13 14 15 14 14 15 16 15 19 18 22 20 21 16 12 11 11 11 14 12
17 16 14 7 7 7 8 9 10 13 12 11 10 11 12 13 14 13 14 15 14 11 14 14 14 15 16 16 15 16 16 17 21 20 19 18 13 18 15 14 17 14 16
9 8 10 5 4 6 7 8 10 12 9 11 11 11 12 13 14 13 15 14 14 14 13 15 16 16 16 16 17 14 16 17 18 17 18 15 15 15 14 14 12 13 10
7 7 12 10 9 12 9 10 12 10 11 11 11 11 13 12 10 11 15 15 14 15 16 16 15 16 15 15 16 15 15 14 16 17 17 16 17 17 14 12 13 11 10
17 9 7 9 7 8 8 11 12 10 11 11 11 11 11 11 13 15 13 13 15 14 14 15 16 15 15 13 13 14 15 15 16 14 14 16 20 25 21 10 12 11 9
17 17 16 20 6 8 10 9 10 10 10 12 11 11 11 10 11 12 13 13 11 12 14 16 15 16 13 27 20 16 13 14 14 13 13 13 19 17 21 20 22 18 9
23 21 18 11 5 9 8 9 9 10 11 11 11 10 9 9 10 9 10 11 12 12 14 15 15 17 17 28 25 19 10 12 14 14 13 12 12 13 10 15 18 18 18
18 16 13 5 6 8 10 9 9 10 10 12 11 10 9 9 9 10 10 9 11 13 13 13 15 15 16 28 25 22 12 12 14 14 14 13 13 16 12 10 12 12 10
15 11 12 12 11 9 10 10 10 10 11 10 8 9 10 10 11 12 11 9 7 9 11 12 14 15 16 28 26 18 11 12 13 13 14 13 14 22 22 12 12 11 11
13 13 14 11 10 11 10 10 9 10 12 11 10 9 10 11 12 12 10 11 9 11 9 11 13 20 14 26 27 18 9 11 10 11 13 24 19 23 23 13 12 12 12
12 11 11 11 12 11 9 10 9 11 9 9 9 10 10 11 11 11 11 10 10 9 10 11 11 13 17 16 26 25 12 9 9 9 10 10 23 23 22 20 12 13 10
13 12 12 12 11 8 7 8 10 8 7 8 10 11 11 11 10 12 10 11 10 10 10 11 10 10 11 22 23 25 24 20 10 10 9 10 20 20 20 13 20 18 11
11 11 11 11 9 8 6 7 6 5 6 8 7 8 10 10 10 11 11 9 10 10 10 10 10 10 9 10 22 23 24 23 11 10 15 20 20 20 13 22 22 13 9
9 8 8 9 8 7 6 4 2 3 4 4 5 6 8 9 9 7 9 9 9 9 10 10 9 9 10 12 12 11 11 18 13 11 9 9 11 8 7 8 10 8 8
9 7 8 8 8 7 7 7 5 5 7 8 7 6 4 6 5 6 8 10 11 12 9 9 8 10 10 13 19 16 11 10 11 6 5 7 8 9 9 9 9 8 9
7 7 6 6 6 6 6 7 7 8 7 8 7 7 7 7 7 6 8 18 19 22 22 22 14 8 20 23 25 22 20 23 19 8 10 10 10 10 10 10 10 8 10
Wind_Direction
57 61 55 51 55 39 45 39 39 21 20 15 13 1 350 339 340 349 349 342 342 329 326 294 257 233 227 225 218 223 226 226 230 240 240 238 227 226 230 232 236 238 233
55 52 41 30 35 33 39 35 40 36 19 10 3 2 338 334 322 341 344 352 344 343 324 334 334 284 240 236 227 219 219 230 202 215 267 237 239 233 229 226 224 226 218
41 26 35 23 27 35 31 35 28 31 25 13 5 354 340 338 342 348 347 344 346 341 344 329 318 335 310 247 236 233 220 227 224 209 201 198 232 232 218 227 224 217 212
31 29 6 18 21 13 26 19 17 33 30 14 13 5 353 346 338 337 336 339 345 339 344 341 328 328 311 347 306 254 237 233 235 211 220 231 156 203 235 255 238 214 186
10 358 1 353 23 18 8 3 23 33 11 10 13 2 2 351 344 345 337 339 342 344 346 345 336 333 332 317 305 316 245 241 248 230 207 222 228 226 159 208 116 88 102
357 350 338 343 20 10 15 21 17 12 3 7 13 9 358 349 345 350 346 341 342 340 349 346 346 341 337 337 325 316 301 252 233 246 242 223 212 215 218 195 137 142 49
3 356 356 20 42 30 24 27 22 18 13 11 9 358 357 359 347 347 350 347 340 346 345 340 353 353 350 343 340 6 351 7 303 230 228 226 225 219 215 219 210 152 152
327 331 343 104 102 69 43 37 26 17 10 6 0 358 12 354 353 352 358 353 345 336 343 346 357 2 360 7 6 360 2 14 9 6 6 240 223 218 210 204 198 190 146
287 292 115 128 107 80 66 49 27 16 18 10 360 16 9 4 5 0 7 357 0 339 349 347 1 12 22 13 17 21 20 12 25 51 27 33 11 25 24 43 282 196 171
329 308 330 32 74 95 78 48 29 19 7 19 14 11 15 12 11 11 15 1 13 348 354 357 8 20 25 28 29 32 28 42 32 30 40 44 31 356 35 24 38 356 221
341 5 342 2 68 52 44 33 31 20 24 20 18 21 16 22 18 20 14 360 7 352 9 359 13 11 20 26 33 37 28 36 40 35 25 36 26 23 27 37 21 30 47
8 359 354 13 45 20 33 32 27 26 28 37 37 26 23 30 33 24 23 8 13 354 7 8 20 22 23 22 39 37 38 34 39 41 34 32 23 30 22 27 33 27 33
356 346 4 16 51 37 19 36 30 30 33 37 38 37 34 34 36 30 27 14 11 15 5 17 20 22 25 31 32 37 41 44 47 41 42 31 33 40 32 30 28 35 38
300 356 11 15 39 42 354 24 24 30 35 45 47 44 39 40 42 42 36 23 16 15 15 18 16 22 21 27 36 37 36 45 41 37 38 34 35 34 31 32 30 25 34
357 3 8 355 25 30 18 16 25 33 48 51 50 49 45 37 38 43 43 34 26 19 14 21 18 19 26 24 44 42 41 42 41 38 32 37 43 44 46 50 41 39 42
333 333 333 332 41 46 42 18 28 44 51 58 50 48 48 46 47 46 39 32 33 29 24 20 21 24 27 33 53 49 46 45 42 37 37 38 41 36 47 53 56 52 37
320 319 323 327 32 47 51 50 46 52 54 55 51 50 47 39 33 33 49 44 36 31 31 25 18 27 28 34 35 47 44 44 42 39 31 34 40 41 31 46 57 57 53
312 315 319 334 91 71 70 60 60 56 50 51 41 37 32 30 31 35 41 43 37 33 27 27 23 23 28 31 32 32 35 36 36 32 32 30 31 32 27 33 42 44 41
320 340 331 74 64 62 65 66 62 62 59 53 28 15 24 36 35 40 38 44 41 36 35 29 26 27 22 31 34 27 25 30 28 23 20 30 30 27 27 25 32 29 28
21 52 46 56 58 57 59 62 52 49 45 36 32 29 37 38 38 33 32 39 38 34 33 31 28 26 25 26 33 32 20 27 21 24 26 24 30 24 30 27 25 22 10
48 54 62 58 56 55 55 58 48 47 38 41 38 37 36 43 37 39 35 30 31 38 35 30 23 25 24 17 31 31 28 25 23 26 22 15 26 23 27 27 23 20 2
47 48 61 61 55 47 55 52 50 39 33 52 55 49 45 46 42 45 41 39 34 34 32 28 25 23 23 20 24 28 33 28 23 25 20 12 22 25 23 24 21 17 8
50 51 60 62 48 46 34 38 24 48 58 57 42 43 49 48 45 45 42 38 31 31 28 25 21 16 12 18 19 19 24 25 24 17 18 14 17 15 12 16 14 10 7
64 56 59 61 55 30 15 12 14 43 48 44 35 46 56 54 48 45 47 39 34 27 25 24 19 13 12 14 12 12 10 17 14 5 5 1 9 2 0 1 7 3 0
63 44 41 46 37 19 16 19 30 49 56 49 42 39 46 55 48 51 56 49 35 39 28 25 17 17 16 17 17 15 11 15 6 351 353 7 10 8 5 2 1 356 354
64 59 37 35 13 19 22 20 33 47 54 55 44 41 43 39 42 42 49 48 52 42 40 30 34 18 24 20 19 17 18 20 14 13 14 8 3 1 355 353 350 350 348